When you browse on this site, cookies collect data to enhance your experience and personalize the content and advertising you see.
Visit our Privacy Policy to learn more. By continuing to use the site, you agree to this use of cookies and data.
  • In Spain
  • List of Countries
  • For 7 days
  • Water Temperature
  • Weather Map
  • Weather Widgets
  • user-avatar
    Login

    Hourly Weather Lucena

    Today, 22 January, Wednesday

    Time Temperature Precipitation Wind Pressure Humidity
    00:00 +7°C° 0.4 mm 2 mps 713 mmHg 87%
    01:00 +7°C° 0.7 mm 2 mps 713 mmHg 88%
    02:00 +6°C° 0.7 mm 2 mps 713 mmHg 90%
    03:00 +7°C° 0.7 mm 1 mps 713 mmHg 91%
    04:00 +7°C° 0.3 mm 1 mps 713 mmHg 91%
    05:00 +7°C° 0.3 mm 1 mps 713 mmHg 91%
    06:00 +6°C° 0.3 mm 1 mps 713 mmHg 91%
    07:00 +7°C° 0 mm 1 mps 713 mmHg 88%
    08:00 +7°C° 0 mm 1 mps 713 mmHg 85%
    09:00 +8°C° 0 mm 1 mps 714 mmHg 81%
    10:00 +8°C° 0.2 mm 2 mps 714 mmHg 77%
    11:00 +9°C° 0.2 mm 2 mps 714 mmHg 72%
    12:00 +10°C° 0.2 mm 2 mps 714 mmHg 67%
    13:00 +9°C° 0.6 mm 2 mps 714 mmHg 70%
    14:00 +9°C° 0.6 mm 3 mps 713 mmHg 73%
    15:00 +9°C° 0.6 mm 3 mps 713 mmHg 76%
    16:00 +8°C° 0.1 mm 3 mps 713 mmHg 79%
    17:00 +7°C° 0.1 mm 2 mps 713 mmHg 81%
    18:00 +7°C° 0.1 mm 2 mps 713 mmHg 84%
    19:00 +6°C° 0 mm 2 mps 713 mmHg 84%
    20:00 +6°C° 0 mm 2 mps 713 mmHg 84%
    21:00 +6°C° 0 mm 2 mps 714 mmHg 83%
    22:00 +7°C° 0 mm 1 mps 714 mmHg 83%
    23:00 +7°C° 0 mm 1 mps 714 mmHg 83%

    Tomorrow, 23 January, Thursday

    Time Temperature Precipitation Wind Pressure Humidity
    00:00 +7°C° 0 mm 1 mps 714 mmHg 82%
    01:00 +6°C° 0.1 mm 2 mps 714 mmHg 82%
    02:00 +6°C° 0.1 mm 2 mps 714 mmHg 81%
    03:00 +6°C° 0.1 mm 2 mps 714 mmHg 80%
    04:00 +6°C° 0 mm 2 mps 714 mmHg 81%
    05:00 +6°C° 0 mm 2 mps 713 mmHg 81%
    06:00 +5°C° 0 mm 2 mps 713 mmHg 81%
    07:00 +6°C° 0 mm 2 mps 714 mmHg 79%
    08:00 +7°C° 0 mm 2 mps 714 mmHg 77%
    09:00 +7°C° 0 mm 2 mps 715 mmHg 75%
    10:00 +9°C° 0 mm 3 mps 715 mmHg 68%
    11:00 +11°C° 0 mm 3 mps 715 mmHg 62%
    12:00 +13°C° 0 mm 3 mps 715 mmHg 55%
    13:00 +13°C° 0.1 mm 4 mps 715 mmHg 55%
    14:00 +13°C° 0.1 mm 4 mps 715 mmHg 54%
    15:00 +13°C° 0.1 mm 4 mps 715 mmHg 53%
    16:00 +12°C° 0.1 mm 4 mps 715 mmHg 59%
    17:00 +11°C° 0.1 mm 4 mps 715 mmHg 65%
    18:00 +10°C° 0.1 mm 4 mps 715 mmHg 70%
    19:00 +9°C° 0 mm 3 mps 715 mmHg 71%
    20:00 +9°C° 0 mm 3 mps 715 mmHg 72%
    21:00 +9°C° 0 mm 2 mps 716 mmHg 73%
    22:00 +8°C° 0 mm 2 mps 716 mmHg 74%
    23:00 +8°C° 0 mm 2 mps 716 mmHg 75%

    Day after tomorrow, 24 January, Friday

    Time Temperature Precipitation Wind Pressure Humidity
    00:00 +8°C° 0 mm 2 mps 716 mmHg 76%
    01:00 +8°C° 0.2 mm 2 mps 716 mmHg 77%
    02:00 +8°C° 0.2 mm 2 mps 715 mmHg 79%
    03:00 +8°C° 0.2 mm 2 mps 715 mmHg 81%
    04:00 +8°C° 0.3 mm 2 mps 715 mmHg 82%
    05:00 +8°C° 0.3 mm 2 mps 715 mmHg 84%
    06:00 +7°C° 0.3 mm 2 mps 715 mmHg 85%
    07:00 +8°C° 0.1 mm 2 mps 716 mmHg 83%
    08:00 +8°C° 0.1 mm 3 mps 716 mmHg 80%
    09:00 +9°C° 0.1 mm 3 mps 716 mmHg 77%
    10:00 +9°C° 0.1 mm 3 mps 716 mmHg 75%
    11:00 +10°C° 0.1 mm 4 mps 716 mmHg 73%
    12:00 +10°C° 0.1 mm 5 mps 716 mmHg 70%
    13:00 +11°C° 0.8 mm 4 mps 716 mmHg 74%
    14:00 +10°C° 0.8 mm 4 mps 715 mmHg 78%
    15:00 +10°C° 0.8 mm 3 mps 715 mmHg 82%
    16:00 +9°C° 1.9 mm 3 mps 715 mmHg 85%
    17:00 +8°C° 1.9 mm 2 mps 715 mmHg 88%
    18:00 +8°C° 1.9 mm 2 mps 715 mmHg 92%
    19:00 +8°C° 0.6 mm 2 mps 716 mmHg 91%
    20:00 +8°C° 0.6 mm 2 mps 716 mmHg 91%
    21:00 +8°C° 0.6 mm 2 mps 716 mmHg 91%
    22:00 +8°C° 0.5 mm 2 mps 716 mmHg 91%
    23:00 +8°C° 0.5 mm 2 mps 716 mmHg 91%

    25 January, Saturday

    Time Temperature Precipitation Wind Pressure Humidity
    00:00 +8°C° 0.5 mm 2 mps 716 mmHg 90%
    01:00 +8°C° 0.2 mm 2 mps 716 mmHg 90%
    02:00 +7°C° 0.2 mm 2 mps 715 mmHg 90%
    03:00 +7°C° 0.2 mm 2 mps 715 mmHg 90%
    04:00 +7°C° 1 mm 2 mps 715 mmHg 91%
    05:00 +8°C° 1 mm 1 mps 715 mmHg 92%
    06:00 +9°C° 1 mm 1 mps 715 mmHg 93%
    07:00 +9°C° 0.8 mm 1 mps 715 mmHg 92%
    08:00 +8°C° 0.8 mm 2 mps 715 mmHg 92%
    09:00 +8°C° 0.8 mm 2 mps 716 mmHg 91%
    10:00 +9°C° 1.1 mm 3 mps 716 mmHg 87%
    11:00 +9°C° 1.1 mm 3 mps 716 mmHg 84%
    12:00 +10°C° 1.1 mm 4 mps 716 mmHg 81%
    13:00 +10°C° 0.6 mm 4 mps 715 mmHg 79%
    14:00 +11°C° 0.6 mm 4 mps 715 mmHg 76%
    15:00 +11°C° 0.6 mm 4 mps 715 mmHg 74%
    16:00 +10°C° 0.6 mm 3 mps 715 mmHg 79%
    17:00 +9°C° 0.6 mm 2 mps 715 mmHg 84%
    18:00 +8°C° 0.6 mm 2 mps 715 mmHg 89%
    19:00 +9°C° 0.2 mm 1 mps 716 mmHg 89%
    20:00 +8°C° 0.2 mm 1 mps 716 mmHg 90%
    21:00 +8°C° 0.2 mm 1 mps 717 mmHg 91%
    22:00 +8°C° 0 mm 1 mps 717 mmHg 92%
    23:00 +8°C° 0 mm 1 mps 717 mmHg 93%

    26 January, Sunday

    Time Temperature Precipitation Wind Pressure Humidity
    00:00 +8°C° 0 mm 1 mps 718 mmHg 94%
    01:00 +7°C° 0 mm 1 mps 718 mmHg 94%
    02:00 +7°C° 0 mm 1 mps 718 mmHg 95%
    03:00 +6°C° 0 mm 0 mps 718 mmHg 95%
    04:00 +5°C° 0 mm 0 mps 718 mmHg 95%
    05:00 +5°C° 0 mm 0 mps 719 mmHg 96%
    06:00 +5°C° 0 mm 0 mps 719 mmHg 96%
    07:00 +6°C° 0 mm 0 mps 719 mmHg 94%
    08:00 +6°C° 0 mm 0 mps 720 mmHg 93%
    09:00 +7°C° 0 mm 0 mps 721 mmHg 91%
    10:00 +9°C° 0 mm 1 mps 721 mmHg 84%
    11:00 +10°C° 0 mm 1 mps 721 mmHg 76%
    12:00 +12°C° 0 mm 1 mps 721 mmHg 69%
    13:00 +12°C° 0 mm 1 mps 721 mmHg 66%
    14:00 +13°C° 0 mm 2 mps 721 mmHg 62%
    15:00 +13°C° 0 mm 2 mps 721 mmHg 59%
    16:00 +12°C° 0 mm 2 mps 721 mmHg 65%
    17:00 +10°C° 0 mm 1 mps 721 mmHg 71%
    18:00 +9°C° 0 mm 1 mps 721 mmHg 77%
    19:00 +9°C° 0 mm 1 mps 721 mmHg 78%
    20:00 +8°C° 0 mm 1 mps 721 mmHg 79%
    21:00 +8°C° 0 mm 1 mps 722 mmHg 81%
    22:00 +7°C° 0 mm 1 mps 722 mmHg 81%
    23:00 +7°C° 0 mm 1 mps 722 mmHg 81%

    27 January, Monday

    Time Temperature Precipitation Wind Pressure Humidity
    00:00 +7°C° 0 mm 1 mps 722 mmHg 81%
    01:00 +7°C° 0 mm 1 mps 721 mmHg 81%
    02:00 +6°C° 0 mm 1 mps 721 mmHg 80%
    03:00 +6°C° 0 mm 1 mps 721 mmHg 80%
    04:00 +6°C° 0 mm 1 mps 721 mmHg 79%
    05:00 +6°C° 0 mm 1 mps 721 mmHg 79%
    06:00 +6°C° 0 mm 1 mps 721 mmHg 78%
    07:00 +7°C° 0 mm 1 mps 721 mmHg 76%
    08:00 +7°C° 0 mm 1 mps 722 mmHg 73%
    09:00 +8°C° 0 mm 1 mps 722 mmHg 70%
    10:00 +9°C° 0 mm 2 mps 722 mmHg 63%
    11:00 +12°C° 0 mm 2 mps 722 mmHg 56%
    12:00 +13°C° 0 mm 2 mps 722 mmHg 49%
    13:00 +14°C° 0 mm 2 mps 722 mmHg 48%
    14:00 +14°C° 0 mm 2 mps 721 mmHg 47%
    15:00 +14°C° 0 mm 2 mps 720 mmHg 46%
    16:00 +13°C° 0 mm 2 mps 720 mmHg 53%
    17:00 +11°C° 0 mm 1 mps 720 mmHg 60%
    18:00 +9°C° 0 mm 1 mps 720 mmHg 67%
    19:00 +9°C° 0 mm 1 mps 720 mmHg 69%
    20:00 +8°C° 0 mm 1 mps 721 mmHg 70%
    21:00 +8°C° 0 mm 1 mps 721 mmHg 72%
    22:00 +7°C° 0 mm 1 mps 721 mmHg 71%
    23:00 +7°C° 0 mm 1 mps 721 mmHg 71%
    Show more